Weather in Cluj-Napoca

Romania     46°46′13″N   23°37′27″E
temp.,
°C
wind,
m/s
gust,
m/s
humid.,
%
clouds,
%
prec.,
mm/h
press.,
hPa
HPBL,
m
9 may, sun
sun900:00+3sw22831 0.0 102512
03:00+2sw21691 0.0 102612
06:00+2s226864 0.0 102612
09:00+8se23615 0.0 1026384
12:00+12se44525 0.0 10251115
15:00+14ese33515 0.0 10241166
18:00+14ese33535 0.0 10231068
21:00+8sse33726 0.0 102419
10 may, mon
mon1000:00+7sse22705 0.0 102414
03:00+6sse22695 0.0 102415
06:00+5sse33735 0.0 102326
09:00+11se45672 0.0 1023295
12:00+16se56590 0.0 1021576
15:00+19ese44550 0.0 1020703
18:00+19se33600 0.0 1018641
21:00+13s22810 0.0 101911
11 may, tue
tue1100:00+11ssw11830 0.0 101911
03:00+10s22812 0.0 101811
06:00+9sse22837 0.0 101812
09:00+14ese34695 0.0 1017272
12:00+19se46585 0.0 1015580
15:00+20se56552 0.0 1014765
18:00+20se46631 0.0 1012787
21:00+15sse22795 0.0 101117
12 may, wed
wed1200:00+12sse34830 0.0 101248
03:00+10sse33810 0.0 101147
06:00+8se35830 0.0 101069
09:00+13se59685 0.0 1008424
12:00+16se7963100 0.0 1007730
15:00+18se676097 0.0 1005864
18:00+17se247380 0.2 1003219
21:00+13s0189100 1.7 100510
13 may, thu
thu1300:00+12nnw0196100 2.2 100630
03:00+11nw1195100 2.9 100514
06:00+10ese2398100 0.8 100584
09:00+12se359095 2.0 1005383
12:00+11wnw139397 3.9 1005176
15:00+13n3477100 5.0 1006747
18:00+13nnw227569 0.2 1006555
21:00+11nw118453 0.3 100610